N930LA KIYA-KHDC

Flight info

Callsign N930LA
Flight time 0h 23m
Altitude 9500
Route /
Aircraft TBM9/L-VGDW/C

Departure

Time 2026-05-05 02:55
Airport Abbeville Chris Crusta Memorial Airport (KIYA)

Arrival

Time 2026-05-05 03:18
Airport Hammond Northshore Regional Airport (KHDC)
Time Latitude Longitude Altitude Speed Heading
2026-05-05 02:50 29.97207 -92.08484 19 ft 0 kts 94°
2026-05-05 02:53 29.97242 -92.08469 19 ft 21 kts
2026-05-05 02:53 29.97486 -92.08544 19 ft 42 kts 340°
2026-05-05 02:53 29.97760 -92.08651 20 ft 41 kts 344°
2026-05-05 02:53 29.98026 -92.08761 20 ft 40 kts 338°
2026-05-05 02:54 29.98187 -92.08794 20 ft 15 kts 66°
2026-05-05 02:54 29.98167 -92.08687 19 ft 25 kts 159°
2026-05-05 02:54 29.97803 -92.08525 18 ft 87 kts 159°
2026-05-05 02:54 29.97115 -92.08206 289 ft 109 kts 157°
2026-05-05 02:55 29.96384 -92.07852 704 ft 124 kts 158°
2026-05-05 02:55 29.95842 -92.07156 1388 ft 125 kts 105°
2026-05-05 02:55 29.96040 -92.06160 1945 ft 134 kts 78°
2026-05-05 02:55 29.96326 -92.05133 2483 ft 136 kts 79°
2026-05-05 02:56 29.96637 -92.04054 2879 ft 153 kts 76°
2026-05-05 02:56 29.96988 -92.02850 3363 ft 160 kts 75°
2026-05-05 02:56 29.97353 -92.01631 3918 ft 163 kts 73°
2026-05-05 02:56 29.97721 -92.00384 4485 ft 166 kts 72°
2026-05-05 02:57 29.98095 -91.99114 5049 ft 169 kts 71°
2026-05-05 02:57 29.98472 -91.97830 5613 ft 170 kts 71°
2026-05-05 02:57 29.98852 -91.96536 6206 ft 170 kts 71°
2026-05-05 02:57 29.99234 -91.95234 6757 ft 173 kts 70°
2026-05-05 02:58 29.99620 -91.93917 7288 ft 174 kts 70°
2026-05-05 02:58 30.00012 -91.92585 7831 ft 176 kts 69°
2026-05-05 02:58 30.00407 -91.91240 8372 ft 178 kts 69°
2026-05-05 02:58 30.00805 -91.89882 8921 ft 179 kts 69°
2026-05-05 02:59 30.01207 -91.88510 9453 ft 184 kts 68°
2026-05-05 02:59 30.01650 -91.86994 9530 ft 215 kts 69°
2026-05-05 02:59 30.02147 -91.85262 9536 ft 239 kts 70°
2026-05-05 02:59 30.02692 -91.83373 9533 ft 255 kts 70°
2026-05-05 03:00 30.03269 -91.81390 9534 ft 265 kts 70°
2026-05-05 03:00 30.03866 -91.79349 9535 ft 271 kts 70°
2026-05-05 03:00 30.04470 -91.77272 9534 ft 274 kts 70°
2026-05-05 03:00 30.05075 -91.75201 9530 ft 277 kts 70°
2026-05-05 03:01 30.05693 -91.73082 9515 ft 280 kts 70°
2026-05-05 03:01 30.06314 -91.70954 9514 ft 280 kts 70°
2026-05-05 03:01 30.06937 -91.68814 9514 ft 281 kts 70°
2026-05-05 03:01 30.07561 -91.66671 9512 ft 281 kts 70°
2026-05-05 03:02 30.08185 -91.64523 9511 ft 282 kts 70°
2026-05-05 03:02 30.08809 -91.62377 9504 ft 282 kts 70°
2026-05-05 03:02 30.09432 -91.60231 9506 ft 282 kts 70°
2026-05-05 03:02 30.10054 -91.58087 9504 ft 282 kts 70°
2026-05-05 03:03 30.10677 -91.55943 9504 ft 282 kts 70°
2026-05-05 03:03 30.11298 -91.53799 9503 ft 282 kts 70°
2026-05-05 03:03 30.11918 -91.51656 9498 ft 282 kts 70°
2026-05-05 03:03 30.12539 -91.49511 9496 ft 282 kts 69°
2026-05-05 03:04 30.13160 -91.47362 9495 ft 282 kts 69°
2026-05-05 03:04 30.13781 -91.45217 9497 ft 282 kts 70°
2026-05-05 03:04 30.14401 -91.43067 9494 ft 282 kts 69°
2026-05-05 03:04 30.15020 -91.40921 9495 ft 282 kts 70°
2026-05-05 03:05 30.15640 -91.38774 9493 ft 282 kts 69°
2026-05-05 03:05 30.16251 -91.36652 9500 ft 282 kts 69°
2026-05-05 03:05 30.16871 -91.34500 9496 ft 282 kts 69°
2026-05-05 03:05 30.17490 -91.32349 9500 ft 282 kts 69°
2026-05-05 03:06 30.18108 -91.30201 9500 ft 282 kts 69°
2026-05-05 03:06 30.18727 -91.28047 9498 ft 282 kts 69°
2026-05-05 03:06 30.19345 -91.25896 9503 ft 282 kts 69°
2026-05-05 03:06 30.19964 -91.23740 9505 ft 282 kts 69°
2026-05-05 03:07 30.20581 -91.21586 9503 ft 282 kts 69°
2026-05-05 03:07 30.21197 -91.19437 9502 ft 282 kts 69°
2026-05-05 03:07 30.21815 -91.17280 9504 ft 282 kts 69°
2026-05-05 03:07 30.22431 -91.15129 9508 ft 282 kts 69°
2026-05-05 03:08 30.23046 -91.12977 9505 ft 282 kts 69°
2026-05-05 03:08 30.23662 -91.10824 9507 ft 282 kts 69°
2026-05-05 03:08 30.24276 -91.08672 9506 ft 282 kts 69°
2026-05-05 03:08 30.24891 -91.06517 9505 ft 282 kts 69°
2026-05-05 03:09 30.25498 -91.04390 9508 ft 282 kts 69°
2026-05-05 03:09 30.26112 -91.02235 9507 ft 282 kts 69°
2026-05-05 03:09 30.26726 -91.00080 9510 ft 282 kts 69°
2026-05-05 03:09 30.27339 -90.97922 9508 ft 282 kts 69°
2026-05-05 03:10 30.27954 -90.95765 9508 ft 282 kts 69°
2026-05-05 03:10 30.28568 -90.93602 9508 ft 282 kts 69°
2026-05-05 03:10 30.29180 -90.91446 9506 ft 282 kts 69°
2026-05-05 03:10 30.29793 -90.89289 9503 ft 282 kts 69°
2026-05-05 03:11 30.30411 -90.87109 9286 ft 289 kts 69°
2026-05-05 03:11 30.31039 -90.84868 8918 ft 295 kts 69°
2026-05-05 03:11 30.31677 -90.82590 8513 ft 299 kts 70°
2026-05-05 03:11 30.32319 -90.80326 8116 ft 300 kts 69°
2026-05-05 03:12 30.32975 -90.78036 7719 ft 299 kts 70°
2026-05-05 03:12 30.33619 -90.75750 7322 ft 298 kts 70°
2026-05-05 03:12 30.34262 -90.73471 6928 ft 297 kts 70°
2026-05-05 03:12 30.34902 -90.71204 6540 ft 295 kts 71°
2026-05-05 03:13 30.35539 -90.68945 6135 ft 293 kts 71°
2026-05-05 03:13 30.36167 -90.66719 5744 ft 290 kts 72°
2026-05-05 03:13 30.36788 -90.64507 5364 ft 287 kts 72°
2026-05-05 03:13 30.37404 -90.62322 4986 ft 284 kts 73°
2026-05-05 03:14 30.38012 -90.60160 4604 ft 281 kts 73°
2026-05-05 03:14 30.38613 -90.58023 4230 ft 278 kts 74°
2026-05-05 03:14 30.39194 -90.55950 3875 ft 273 kts 74°
2026-05-05 03:14 30.39774 -90.53882 3521 ft 267 kts 75°
2026-05-05 03:15 30.40343 -90.51859 3169 ft 262 kts 75°
2026-05-05 03:15 30.40903 -90.49871 2824 ft 259 kts 75°
2026-05-05 03:15 30.41460 -90.47894 2483 ft 256 kts 75°
2026-05-05 03:15 30.42002 -90.45991 2146 ft 235 kts 74°
2026-05-05 03:16 30.42782 -90.44417 1841 ft 217 kts 56°
2026-05-05 03:16 30.43806 -90.43237 1565 ft 201 kts 41°
2026-05-05 03:16 30.44934 -90.42452 1329 ft 178 kts 26°
2026-05-05 03:16 30.46040 -90.42022 1110 ft 158 kts 14°
2026-05-05 03:17 30.47077 -90.41864 920 ft 143 kts
2026-05-05 03:17 30.48025 -90.41879 747 ft 129 kts
2026-05-05 03:17 30.48800 -90.41882 610 ft 102 kts 359°
2026-05-05 03:17 30.49509 -90.41895 469 ft 102 kts
2026-05-05 03:18 30.50198 -90.41900 337 ft 99 kts
2026-05-05 03:18 30.50875 -90.41903 213 ft 96 kts
2026-05-05 03:18 30.51543 -90.41913 67 ft 94 kts
2026-05-05 03:18 30.52006 -90.41913 48 ft 14 kts
2026-05-05 03:19 30.51984 -90.42069 46 ft 17 kts 251°
2026-05-05 03:19 30.51940 -90.42160 46 ft 10 kts 307°
2026-05-05 03:19 30.51959 -90.42169 46 ft 0 kts 359°